STARLINK-1835, 46782

Orbit data source: Space-Track

STARLINK-1835, 46782 is a payload satellite owned by SpaceX/Seattle (US) in LEO that was launched on Sat, 24 Oct 2020 UTC via an FALCON 9 launch vehicle from the Air Force Eastern Test Range (AFETR). Payload-class satellites include a variety of spacecraft equipped with specific instruments for various scientific and technological missions. These include communications satellites like Starlink; space stations such as the ISS; scientific satellites like the Hubble; Earth observation satellites from companies like Planet Labs, Umbra, and HawkEye 360; GPS; miniature CubeSats for education and research; and military/defense satellites.

Loading next visibility...
Identifier
46782, 2020-074AV
Orbit
LEO
Country
Flag of USUS
Related business
Manufacturer
SpaceX/Seattle
Mission
Partially operational Commercial Communications
Bus & Motor
STARLINK, Unknown motor
Mass
260 kg wet, ~248 kg dry
Launch date (UTC)
2020-10-24 (5 years ago)
Launch vehicle
FALCON 9
Launch site
Air Force Eastern Test Range (AFETR)
Object type
Payload
Rocket body
Debris
Shape & HBR
Box + 1 Pan, 10.1 m
Radar Cross Section
13.562 m², Large (>1 m²)

Expand to show TLE details & history
Last TLE update: 9 hours ago

TLE from 9 hours ago
0 STARLINK-1835
1 46782U 20074AV  26072.53296962  .00144924  00000-0  17718-2 0  9999
2 46782  53.0453 256.1335 0005524  15.9926 344.1260 15.59438204297933
Epoch: 2026-03-13T12:47Z
TLE epoch observation values (Epoch: 2026-03-13T12:47:28.575Z)
Latitude
0.00005°
Longitude
-106.90267°
Altitude
386.585 km
Speed
7.681 km/s
True Right ascension
17h 04m 32s
True Declination
0° 00' 00"
Sunlit
Object was in daylight at epoch
Visualization orbit readout
Latitude
Unknown
Longitude
Unknown
Altitude
Unknown
Speed
Unknown
Apparent Right ascension
Unknown
Apparent Declination
Unknown
Sunlit
N/A
Visualization observer readout
Local Sidereal Time
02:01:31
Azimuth
Unknown
Elevation
Unknown
Doppler factor
Unknown
Orbital elements
Apogee altitude
393.299 km
Perigee altitude
385.822 km
Semi-major axis
6,767.697 km
Eccentricity
0.00055
Inclination
53.0453°
RAAN
256.1335°
Arg. of periapsis
15.9926°
True anomaly
344.10867°
Mean anomaly
344.126°
Eccentric anomaly
344.11734°
Mean motion
3.89836 °/min
Orbital period
92.35 mins
BSTAR
0.0017718
Loading maneuver chart data...
Computing Atmospheric mass density...
Loading historical data...
Loading historical data...
Loading historical data...
Loading historical data...
Loading historical data...
Loading historical data...
Loading historical data...

Documentation

Showing up to 5 results
|